CST,Max TemperatureF,Mean TemperatureF,Min TemperatureF,Max Dew PointF,MeanDew PointF,Min DewpointF,Max Humidity, Mean Humidity, Min Humidity, Max Sea Level PressureIn, Mean Sea Level PressureIn, Min Sea Level PressureIn, Max VisibilityMiles, Mean VisibilityMiles, Min VisibilityMiles, Max Wind SpeedMPH, Mean Wind SpeedMPH, Max Gust SpeedMPH,PrecipitationIn, CloudCover, Events, WindDirDegrees
2013-1-1,40,36,32,37,34,28,100,90,79,30.18,30.10,30.04,10,4,1,10,4,15,0.08,8,Rain,355
2013-1-2,35,31,26,28,23,22,92,77,61,30.30,30.24,30.17,10,7,4,10,3,16,0.00,5,,332
2013-1-3,45,33,21,23,20,15,88,61,33,30.45,30.34,30.26,10,9,5,13,2,16,0.00,0,,303
2013-1-4,46,34,21,27,23,19,88,65,41,30.48,30.43,30.40,10,10,6,13,3,17,0.00,1,,233
2013-1-5,48,35,21,28,25,18,92,69,45,30.43,30.33,30.23,10,10,9,12,4,16,0.00,4,,213
2013-1-6,48,38,27,34,28,21,76,67,57,30.42,30.26,30.15,10,10,8,20,8,25,0.00,5,,270
2013-1-7,46,33,19,26,22,15,84,65,45,30.48,30.39,30.27,10,7,2,8,1,12,0.00,0,,99
2013-1-8,57,40,23,35,30,20,88,66,43,30.37,30.28,30.24,10,9,6,16,3,20,0.00,0,,191
2013-1-9,56,48,40,48,44,35,93,83,72,30.48,30.40,30.28,10,6,1,9,2,22,0.12,5,Rain,39
2013-1-10,66,57,48,58,51,44,96,85,73,30.45,30.27,30.00,10,8,2,18,9,28,0.73,7,Rain,98
2013-1-11,70,64,58,61,55,51,93,74,55,30.04,29.98,29.91,10,8,2,23,11,32,0.36,5,Rain,212
2013-1-12,70,65,60,65,62,57,93,82,70,30.03,29.97,29.83,10,9,4,23,9,31,0.04,7,Rain,178
2013-1-13,69,51,32,61,49,27,92,79,66,30.26,29.95,29.83,10,6,1,21,10,30,2.18,8,Rain-Thunderstorm,241
2013-1-14,34,31,27,26,24,21,81,75,69,30.45,30.34,30.27,10,10,2,13,7,18,0.04,6,Snow,6
2013-1-15,36,32,27,31,27,21,89,82,75,30.31,30.19,30.03,10,8,4,15,8,20,0.14,7,Rain,26
2013-1-16,35,34,33,32,30,29,96,89,82,30.16,30.11,30.03,6,4,2,9,3,13,0.03,7,Rain,305
2013-1-17,48,40,32,33,29,25,89,74,58,30.46,30.24,30.12,10,9,6,18,6,24,0.00,4,,13
2013-1-18,48,36,23,27,25,21,92,67,42,30.58,30.48,30.36,10,10,9,12,4,15,0.00,0,,199
2013-1-19,57,42,27,30,27,24,78,54,30,30.36,30.23,30.11,10,10,10,22,10,28,0.00,0,,210
2013-1-20,49,39,29,33,23,14,85,57,29,30.28,30.21,30.13,10,10,10,13,5,16,0.00,0,,312
2013-1-21,36,30,23,18,11,4,68,50,32,30.34,30.27,30.21,10,10,10,20,7,25,0.00,1,,309
2013-1-22,28,22,16,5,1,-2,54,42,29,30.48,30.41,30.34,10,10,10,10,4,16,0.00,3,,334
2013-1-23,46,32,18,27,16,5,74,54,33,30.41,30.29,30.16,10,10,10,14,4,18,0.00,1,,231
2013-1-24,37,31,24,23,8,-1,64,44,24,30.56,30.44,30.24,,,,21,10,25,0.00,1,,42
2013-1-25,33,30,27,30,24,5,92,65,38,30.30,30.17,30.12,,,,13,4,15,0.25,7,Rain,17
2013-1-26,41,33,25,31,27,23,92,78,64,30.41,30.34,30.26,,,,9,3,10,0.00,2,,270
2013-1-27,50,36,22,43,34,21,96,84,71,30.40,30.30,30.20,,,,16,4,22,0.06,5,Rain,117
2013-1-28,60,55,49,52,46,38,86,73,59,30.21,30.15,30.10,,,,22,12,28,0.09,5,Rain,193
2013-1-29,70,63,56,61,56,51,86,77,68,30.10,29.90,29.57,,,,29,16,40,0.00,5,,182
2013-1-30,72,54,35,61,46,23,93,76,59,29.88,29.56,29.43,,,,33,16,45,1.34,7,Rain,241
2013-1-31,44,34,24,32,24,14,78,61,43,30.25,30.04,29.88,10,6,1,24,14,33,0.03,7,Rain-Snow,278